sat.trackr.live / text

‹ back to catalog

STARLINK-3720

NORAD 52136 · 2022-029BA

PAYLOAD ACTIVE UNKNOWN

§ Identity

Operator
Country
US
Launch date
2022-03-19
Launch site
AFETR
Launch vehicle
Mass (kg)
RCS (m²)

Purposes: comms

External: N2YO · Heavens-Above · Gunter

§ Orbital elements

Epoch: 2026-05-25T02:31:22.538208Z

Period
95.44 min
Inclination
53.2144°
Eccentricity
0.0001429
Mean motion
15.08844759 rev/d
Perigee alt
538.7 km
Apogee alt
540.7 km
Semi-major
6,917.9 km
B*
4.9825e-5
RAAN
86.0746°
Arg perigee
92.2159°
Mean anomaly
267.8997°
Rev number
23,247

§ Raw data

STARLINK-37201 52136U 22029BA  26145.10512197  .00000505  00000+0  49825-4 0  99972 52136  53.2144  86.0746 0001429  92.2159 267.8997 15.08844759232470

JSON: /api/v1/satellites/52136 · /tle

For live sub-satellite position, see the globe view (requires WebGL).

§ Visibility from observer

Set your observer location to see the next 7 days of passes ≥ 10°. The values pass through the URL so the page stays shareable.

No JS? Fill the form by hand. The geolocation button needs JavaScript.